Погода в Братолюбовке

Погода в Братолюбовке : погода сейчас, прогноз погоды и архив. Всё, что Вы хотите узнать о погоде в Братолюбовке!

Поиск расширенной информации на нашем сайте:

Другие новости

Новости СМИ2

Главная страница сайта

Новости сайта

03.07.2017

Напоминаем, что на нашем специализированном сайте Метеоцентр.Азия вы можете получить высокодетализированные автоматические прогнозы погоды по пунктам России, СНГ и мира в авиационном формате (включающие направление и скорость ветра, видимость, явления погоды, количество и форму облачности, нижнюю и верхнюю границу облачности).

Рекомендуем: Перфоратор оптом купить оптом перфоратор lad-rostov.ru.

Погода в Братолюбовке - сегодня

Время (UTC), дата Ветер
(°,м/с) 
Видим.   Явления Облачность Т
(°С)
Тd
(°С)
f(%) Тe
(°С)
Pmin
(гПа)
dP
(гПа)
Po
(мм)
O2
(г/м3)
Тmin Tmax R s Состояние
почвы
18 15.10.17 160 (Ю) 50000 м    10/0 верхняя 
[Cs]
-5.7 -9.2 76 -7  1026.5  -0.6  748  309           
21 15.10.17 110 (В) 50000 м    1/0 средняя 
[Ac lent]
-8.6 -10.5 86 -11  1025.7  -1.1  747  312           
00 16.10.17 130 (ЮВ) 20000 м    9/8 600 м средняя 
[Cu Sc|Ac lent]
-1.7 -6.8 68 -3  1024.5  -0.4  746  303  -8.7        замёрзшая 
03 16.10.17 210 (ЮЗ) 28000 м    10/0 средняя, верхняя 
[Ac trans|Cs]
+4.1 -8 41 +4  1022.2  -1.7  745  297           
06 16.10.17 230 (ЮЗ) 35000 м    10/0 средняя 
[As trans]
+4.3 -6.5 45 +5  1020.6  -1.5  744  296           
09 16.10.17 060 (СВ) 12000 м  в посл. час ливневой снег  10/10 600 м кучево-дожд. 
[Cb cap]
-0.7 -1.7 93 -2  1021.3  0.2  744  301           
12 16.10.17 тихо ()   50000 м  {ливн. осадки}  4/4 600 м кучево-дожд. 
[Cb cap]
-2.5 -3.1 96 -3  1021.9  0.4  745  303    +5.3  0.9     
15 16.10.17 320 (СЗ) 5000 м  слаб. снег  10/10 600 м 
[Frnb|Ns]
-1.6 -2.2 96 -3  1022.3  0.5  745  302           
18 16.10.17 330 (СЗ) 50000 м  {снег}  6/6 600 м кучево-дожд. 
[Cb cap]
-3.1 -5.9 81 -4  1024.5  1.9  746  305           
21 16.10.17 330 (СЗ) 50000 м    ясно 
-6.5 -12.1 64 -9  1027.6  2.7  748  310           
00 17.10.17 310 (СЗ) 20000 м    ясно 
-4.1 -10.7 60 -7  1029.5  2.1  750  308  -8.8    0.0  равномерный
сухой снег
100% 
03 17.10.17 300 (СЗ) 20000 м    ясно 
-0.1 -11.8 41 -3  1029.6  0.5  750  304           
06 17.10.17 300 (СЗ) 4{11}  20000 м    ясно 
+1.5 -14.7 29 -1  1028.7  -0.7  750  302           
09 17.10.17 290 (З) 20000 м    ясно 
-2.6 -13.7 42 -4  1029.5  0.4  750  306           
12 17.10.17 240 (ЮЗ) 50000 м    ясно 
-6.3 -13.8 55 -6  1030.3  0.4  750  311    +1.5       
15 17.10.17 210 (ЮЗ) 50000 м    ясно 
-7.9 -13.4 65 -9  1030.6  0.1  750  313           
18 17.10.17 190 (Ю) 50000 м    6/6 1000 м 
[Sc]
-8.5 -12.3 74 -8  1030  -0.6  750  313           
21 17.10.17 120 (ЮВ) 18000 м    3/1 1000 м верхняя 
[Sc|Ci fib]
-10 -11.8 87 -12  1028.9  -1.3  749  314           
00 18.10.17 130 (ЮВ) 20000 м    9/0 средняя 
[Ac lent]
-3.8 -9 67 -6  1027.9  -0.2  749  307  -10.1        замёрзшая 
03 18.10.17 170 (Ю) 20000 м    10/0 средняя, верхняя 
[Ac lent|Cs]
+2.8 -9.5 40 +1  1025.7  -1.4  748  299           
06 18.10.17 150 (ЮВ) 20000 м    10/0 средняя 
[As trans]
+3.1 -9.6 39 +2  1023.2  -2.4  746  298           
09 18.10.17 120 (ЮВ) 20000 м    10/5 600 м средняя, верхняя 
[Sc diur, vesp|Ac trans|Cs]
+1.4 -9 46 1022.4  -1  745  300           
12 18.10.17 090 (В) 50000 м    10/0 верхняя 
[Cs]
-0.9 -7.4 61 -2  1021.9  -0.7  745  302    +3.8       
15 18.10.17 120 (ЮВ) 50000 м    10/0 верхняя 
[Cs]
+0.1 -8.1 54 -2  1020.3  -1.4  744  300           
18 18.10.17 110 (В) 50000 м    10/0 средняя 
[Ac As]
-0.2 -8.4 54 -1  1019.7  -0.6  743  300           
Время (UTC), дата Ветер
(°,м/с) 
Видим.   Явления Облачность Т
(°С)
Тd
(°С)
f(%) Тe
(°С)
Pmin
(гПа)
dP
(гПа)
Po
(мм)
O2
(г/м3)
Тmin Tmax R s Состояние
почвы

Для получения пояснительной информации подведите курсор к названию столбца.

ПОГОДА в Братолюбовке - архив

Всё, что Вы хотите узнать о погоде в Братолюбовке - удобно и подробно!

Выберите нужную дату (начиная с 1 января 2015* года) и нажмите кнопку "Найти".
Будут отображены архивные сводки погоды по пункту Братолюбовка, начиная с указанной даты.


Отображать данные в формате CSV (для использования в таблицах Excel)


Внимание! Наш архив погоды предназначен исключительно для личного некоммерческого использования в познавательных целях. Если Вам необходимы официальные справки о состоянии погоды (для производственных, юридических, коммерческих и т.п. целей), обращайтесь в органы Росгидромета.

*Примечание: данная дата относится к архиву по метеостанциям СССР (Россия, СНГ, Балтия).
Архив по метеостанциям Зарубежной Европы и Азии (кроме Китая) хранится 10 дней, по другим регионам земного шара (Китай, Африка, Америка, Австралия, Океания) - 1 день.

Братолюбовка - район местоположения метеостанции


Название, широта, долгота, высота метеостанции:
Братолюбовка 50.8°ш. 129.3°д. 227 м над ур. моря [Российская Федерация]

Дополнительная информация

В oтличие oт бoльшинства пoгoдных сайтoв мы публикуем пoдрoбную метеoинфoрмацию в детальнoм прoфессиoнальнoм фoрмате.

Характеристики температуры и влажнoсти вoздуха измеряются на высoте 2 м в тени вдали oт зданий и деревьев.
Скoрoсть ветра измеряется на высoте 10 м (на урoвне рoста челoвека скoрoсть ветра ниже в 1.5-2 раза). Если метеoстанция нахoдится в гoрoде или в лесу, тo скoрoсть ветра занижена на 2-4 м/с пo сравнению с oткрытым местoм. Скoрoсть ветра над акватoриями крупных рек и oзёр, а также на вершинах хoлмoв на 2-5 м/с выше, чем в oбычных услoвиях.
Атмoсфернoе давление в разных тoчках местнoсти мoжет значительнo oтличаться oт давления на метеoстанции, в зависимoсти oт услoвий рельефа (при пoдъёме на 10 м давление пoнижается примернo на 1 мм рт.ст.).